Location: Newark
(46.1500°N, 9.2833°E)
Time: 21:05:43
(UTC+00:00)

OTV 5 (USA 277) - Pass Details

Date: 20 October 2019
Orbit: 310 x 324 km, 54.5° (Epoch: 17 October)

Event Time Altitude Azimuth Distance (km) Brightness Sun altitude
Exits shadow 03:34:08 19° 115° (ESE) 865 ? -23.5°
Drops below altitude 10° 03:35:02 10° 118° (ESE) 1,233 ? -23.3°
Sets 03:37:00 0° 120° (ESE) 2,060 ? -23.0°
